map of PMW home
PMW - Airport
Location
City:  Palmas, Tocantins, Brazil
Name:Tocantins
ICAO:SBPJ
IATA:PMW

Details
Type:Airport (Aerodrome, Airfield)
Use:Public/Civil
Latitude:1017'29"S (-10.291524)
Longitude:4821'25"W (-48.356971)
Datum:WGS 1984
Elevation:774 ft (236 m)
Variation:21.20W (WMM2015 magnetic declination)
-0.07 annual change
Runways:1
Longest:8185 × 148 ft (2495 × 45 m), paved

Time
Time Zone:UTC-3
Local Time:

Weather
METAR:SBPJ 260300Z 00000KT 9999 FEW025 26/24 Q1013
TAF:SBPJ 252200Z 2600/2612 00000KT 9999 FEW030TCU TN23/2600Z TX24/2605Z PROB40 2600/2603 TSRA FEW035CB
BECMG 2603/2605 00000KT 9999 FEW015
BECMG 2609/2611 30004KT 9999 FEW008
RMK PDC

Related Locations
Nearby:
Farthest:ROR: 12157 mi / 19565 km
Babelthuap Island [Babelthuap/Koror Airport], PW

Find:

   beyond  
but within

Other Information
Maps:
NOTAMs:
Links:
Sources:

  
flag of Brazil
flag of Tocantins
  

Sectional Chart

Flight Planning
at skyvector.com

Satellite Image

Google Maps Satellite view

 

Copyright © 2004-2017 Karl L. Swartz. All rights reserved.
The Great Circle Mapper name and logo are trademarks of the Great Circle Mapper.
All other trademarks mentioned herein belong to their respective owners.
Please see credits for attibutions and further copyright information.

  Follow gcmap on Facebook Follow gcmap on Twitter Follow gcmap on Google+ GCmap on LinkedIn

hCard Microformat

Geo Microformat